| time (UTC) | temp F | wind direction | speed knots | gust knots | rain 1hr in | rain 24hr in | rain mn in | humidity % | barometer mb |
| 20260510183032 | 57 | 117 | 0.0 | 0.0 | 0.00 | 0.00 | 0.00 | 69 | 1009.9 |
| 20260510182531 | 57 | 117 | 0.0 | 0.0 | 0.00 | 0.00 | 0.00 | 69 | 1009.9 |
| 20260510182031 | 58 | 117 | 0.0 | 0.0 | 0.00 | 0.00 | 0.00 | 69 | 1009.9 |
| 20260510181531 | 58 | 117 | 0.0 | 0.0 | 0.00 | 0.00 | 0.00 | 69 | 1009.9 |
| 20260510181030 | 58 | 117 | 0.0 | 0.0 | 0.00 | 0.00 | 0.00 | 68 | 1009.9 |
| 20260510180533 | 58 | 121 | 0.0 | 0.0 | 0.00 | 0.00 | 0.00 | 68 | 1009.9 |
| 20260510180034 | 58 | 121 | 0.0 | 0.0 | 0.00 | 0.00 | 0.00 | 68 | 1009.9 |
| 20260510175529 | 59 | 121 | 0.0 | 1.7 | 0.00 | 0.00 | 0.00 | 68 | 1010.1 |
| 20260510175032 | 59 | 121 | 0.0 | 1.7 | 0.00 | 0.00 | 0.00 | 67 | 1010.1 |
| 20260510174528 | 59 | 121 | 0.0 | 0.0 | 0.00 | 0.00 | 0.00 | 66 | 1010.4 |
| 20260510174028 | 60 | 121 | 0.0 | 0.0 | 0.00 | 0.00 | 0.00 | 66 | 1010.2 |
| 20260510173529 | 61 | 121 | 0.0 | 0.0 | 0.00 | 0.00 | 0.00 | 66 | 1010.2 |
| 20260510173027 | 61 | 121 | 0.0 | 0.9 | 0.00 | 0.00 | 0.00 | 65 | 1010.3 |
| 20260510172526 | 62 | 121 | 0.0 | 0.9 | 0.00 | 0.00 | 0.00 | 65 | 1010.3 |
| 20260510172029 | 62 | 121 | 0.0 | 1.7 | 0.00 | 0.00 | 0.00 | 66 | 1010.5 |
| 20260510171525 | 62 | 121 | 0.0 | 1.7 | 0.00 | 0.00 | 0.00 | 62 | 1010.4 |
| 20260510171024 | 63 | 123 | 0.0 | 0.0 | 0.00 | 0.00 | 0.00 | 61 | 1010.5 |
| 20260510170526 | 63 | 191 | 0.0 | 0.0 | 0.00 | 0.00 | 0.00 | 63 | 1010.8 |
| 20260510170028 | 63 | 191 | 0.0 | 4.3 | 0.00 | 0.00 | 0.00 | 62 | 1010.8 |
| 20260510165523 | 63 | 175 | 0.9 | 4.3 | 0.00 | 0.00 | 0.00 | 61 | 1010.8 |
| 20260510165024 | 63 | 165 | 0.0 | 3.5 | 0.00 | 0.00 | 0.00 | 60 | 1010.9 |
| 20260510164523 | 63 | 188 | 0.0 | 2.6 | 0.00 | 0.00 | 0.00 | 61 | 1010.9 |
| 20260510164022 | 64 | 186 | 0.0 | 3.5 | 0.00 | 0.00 | 0.00 | 60 | 1010.9 |
| 20260510163521 | 64 | 186 | 0.0 | 3.5 | 0.00 | 0.00 | 0.00 | 59 | 1010.9 |
| 20260510163020 | 64 | 207 | 0.0 | 3.5 | 0.00 | 0.00 | 0.00 | 62 | 1011.0 |
| 20260510162521 | 64 | 185 | 0.0 | 3.5 | 0.00 | 0.00 | 0.00 | 61 | 1011.1 |
| 20260510162019 | 64 | 182 | 0.0 | 6.1 | 0.00 | 0.00 | 0.00 | 61 | 1011.2 |
| 20260510161523 | 64 | 179 | 2.6 | 6.1 | 0.00 | 0.00 | 0.00 | 58 | 1011.3 |
| 20260510161019 | 65 | 170 | 0.9 | 3.5 | 0.00 | 0.00 | 0.00 | 59 | 1011.2 |
| 20260510160523 | 65 | 94 | 0.9 | 3.5 | 0.00 | 0.00 | 0.00 | 59 | 1011.4 |
| 20260510160018 | 65 | 208 | 0.9 | 2.6 | 0.00 | 0.00 | 0.00 | 59 | 1011.5 |
| 20260510155618 | 66 | 222 | 0.9 | 2.6 | 0.00 | 0.00 | 0.00 | 58 | 1011.5 |
| 20260510155017 | 66 | 227 | 0.0 | 2.6 | 0.00 | 0.00 | 0.00 | 60 | 1011.7 |
| 20260510154518 | 66 | 269 | 0.9 | 2.6 | 0.00 | 0.00 | 0.00 | 60 | 1011.5 |
| 20260510154021 | 65 | 278 | 0.9 | 4.3 | 0.00 | 0.00 | 0.00 | 59 | 1011.7 |
| 20260510153520 | 65 | 227 | 0.9 | 4.3 | 0.00 | 0.00 | 0.00 | 60 | 1011.7 |
| 20260510153018 | 66 | 154 | 1.7 | 5.2 | 0.00 | 0.00 | 0.00 | 58 | 1011.7 |
| 20260510152514 | 65 | 78 | 0.0 | 3.5 | 0.00 | 0.00 | 0.00 | 61 | 1011.7 |
| 20260510152013 | 65 | 215 | 0.0 | 3.5 | 0.00 | 0.00 | 0.00 | 59 | 1011.8 |
| 20260510151514 | 65 | 228 | 0.9 | 6.1 | 0.00 | 0.00 | 0.00 | 60 | 1011.9 |
| 20260510151014 | 65 | 144 | 0.9 | 6.1 | 0.00 | 0.00 | 0.00 | 57 | 1011.9 |
| 20260510150513 | 66 | 153 | 1.7 | 4.3 | 0.00 | 0.00 | 0.00 | 59 | 1012.0 |
| 20260510150012 | 66 | 250 | 1.7 | 4.3 | 0.00 | 0.00 | 0.00 | 60 | 1012.1 |
| 20260510145513 | 65 | 197 | 0.9 | 4.3 | 0.00 | 0.00 | 0.00 | 59 | 1012.2 |
| 20260510145011 | 65 | 244 | 0.9 | 4.3 | 0.00 | 0.00 | 0.00 | 62 | 1012.2 |
| 20260510144516 | 65 | 158 | 0.9 | 4.3 | 0.00 | 0.00 | 0.00 | 59 | 1012.3 |
| 20260510144011 | 65 | 205 | 0.0 | 4.3 | 0.00 | 0.00 | 0.00 | 61 | 1012.2 |
| 20260510143510 | 64 | 153 | 0.9 | 5.2 | 0.00 | 0.00 | 0.00 | 62 | 1012.3 |
| 20260510143018 | 65 | 195 | 1.7 | 5.2 | 0.00 | 0.00 | 0.00 | 61 | 1012.3 |
| 20260510142512 | 65 | 161 | 1.7 | 5.2 | 0.00 | 0.00 | 0.00 | 61 | 1012.4 |
| 20260510142009 | 65 | 140 | 1.7 | 4.3 | 0.00 | 0.00 | 0.00 | 65 | 1012.5 |
| 20260510141508 | 65 | 159 | 2.6 | 5.2 | 0.00 | 0.00 | 0.00 | 61 | 1012.5 |
| 20260510141008 | 65 | 162 | 1.7 | 6.1 | 0.00 | 0.00 | 0.00 | 60 | 1012.6 |
| 20260510140507 | 65 | 217 | 0.9 | 6.1 | 0.00 | 0.00 | 0.00 | 58 | 1012.6 |
| 20260510140006 | 65 | 273 | 0.9 | 3.5 | 0.00 | 0.00 | 0.00 | 61 | 1012.8 |
| 20260510135507 | 65 | 131 | 0.9 | 3.5 | 0.00 | 0.00 | 0.00 | 61 | 1012.9 |
| 20260510135005 | 65 | 268 | 1.7 | 3.5 | 0.00 | 0.00 | 0.00 | 59 | 1012.9 |
| 20260510134505 | 65 | 242 | 0.9 | 4.3 | 0.00 | 0.00 | 0.00 | 62 | 1013.0 |
| 20260510134003 | 65 | 88 | 1.7 | 6.1 | 0.00 | 0.00 | 0.00 | 58 | 1013.0 |
| 20260510133502 | 65 | 147 | 0.9 | 6.1 | 0.00 | 0.00 | 0.00 | 61 | 1013.2 |
| 20260510133003 | 65 | 215 | 2.6 | 6.1 | 0.00 | 0.00 | 0.00 | 61 | 1013.1 |
| 20260510132502 | 65 | 214 | 1.7 | 3.5 | 0.00 | 0.00 | 0.00 | 63 | 1013.2 |
| 20260510132003 | 64 | 267 | 0.9 | 3.5 | 0.00 | 0.00 | 0.00 | 61 | 1013.2 |
| 20260510131501 | 64 | 257 | 0.9 | 5.2 | 0.00 | 0.00 | 0.00 | 61 | 1013.3 |
| 20260510131000 | 64 | 186 | 0.9 | 6.1 | 0.00 | 0.00 | 0.00 | 61 | 1013.5 |
| 20260510130600 | 64 | 167 | 1.7 | 6.1 | 0.00 | 0.00 | 0.00 | 62 | 1013.4 |
| 20260510130059 | 64 | 272 | 0.9 | 6.1 | 0.00 | 0.00 | 0.00 | 63 | 1013.5 |
| 20260510125558 | 64 | 264 | 2.6 | 6.1 | 0.00 | 0.00 | 0.00 | 64 | 1013.6 |
| 20260510125056 | 63 | 134 | 1.7 | 6.1 | 0.00 | 0.00 | 0.00 | 62 | 1013.7 |
| 20260510124611 | 63 | 199 | 2.6 | 6.1 | 0.00 | 0.00 | 0.00 | 62 | 1013.8 |
| 20260510124055 | 63 | 219 | 2.6 | 6.1 | 0.00 | 0.00 | 0.00 | 66 | 1013.8 |
| 20260510123554 | 63 | 244 | 1.7 | 6.1 | 0.00 | 0.00 | 0.00 | 65 | 1013.8 |
| 20260510123054 | 63 | 246 | 0.9 | 5.2 | 0.00 | 0.00 | 0.00 | 64 | 1013.9 |
| 20260510122552 | 63 | 220 | 1.7 | 7.0 | 0.00 | 0.00 | 0.00 | 67 | 1014.1 |
| 20260510122052 | 63 | 262 | 2.6 | 6.1 | 0.00 | 0.00 | 0.00 | 66 | 1014.1 |
| 20260510121551 | 62 | 193 | 1.7 | 6.1 | 0.00 | 0.00 | 0.00 | 66 | 1014.2 |
| 20260510121052 | 62 | 176 | 2.6 | 6.1 | 0.00 | 0.00 | 0.00 | 64 | 1014.4 |
| 20260510120549 | 62 | 274 | 2.6 | 6.1 | 0.00 | 0.00 | 0.00 | 68 | 1014.4 |
| 20260510120050 | 62 | 188 | 1.7 | 6.1 | 0.00 | 0.00 | 0.00 | 69 | 1014.5 |
| 20260510115549 | 61 | 232 | 0.9 | 6.1 | 0.00 | 0.00 | 0.00 | 67 | 1014.5 |
| 20260510115049 | 62 | 236 | 3.5 | 6.1 | 0.00 | 0.00 | 0.00 | 66 | 1014.4 |
| 20260510114548 | 62 | 238 | 1.7 | 6.1 | 0.00 | 0.00 | 0.00 | 67 | 1014.4 |
| 20260510114048 | 62 | 137 | 1.7 | 6.1 | 0.00 | 0.00 | 0.00 | 67 | 1014.6 |
| 20260510113546 | 62 | 143 | 2.6 | 6.1 | 0.00 | 0.00 | 0.00 | 65 | 1014.7 |
| 20260510113046 | 62 | 253 | 0.9 | 5.2 | 0.00 | 0.00 | 0.00 | 73 | 1014.6 |
| 20260510112646 | 61 | 137 | 0.9 | 6.1 | 0.00 | 0.00 | 0.00 | 65 | 1014.8 |
| 20260510112045 | 61 | 216 | 1.7 | 6.1 | 0.00 | 0.00 | 0.00 | 69 | 1014.7 |
| 20260510111544 | 62 | 233 | 1.7 | 6.1 | 0.00 | 0.00 | 0.00 | 68 | 1014.9 |
| 20260510111044 | 62 | 208 | 1.7 | 4.3 | 0.00 | 0.00 | 0.00 | 70 | 1014.9 |
| 20260510110542 | 62 | 252 | 2.6 | 5.2 | 0.00 | 0.00 | 0.00 | 68 | 1015.0 |
| 20260510110047 | 61 | 199 | 2.6 | 7.8 | 0.00 | 0.00 | 0.00 | 71 | 1014.9 |
| 20260510105540 | 61 | 179 | 1.7 | 7.8 | 0.00 | 0.00 | 0.00 | 73 | 1015.1 |
| 20260510105039 | 60 | 150 | 2.6 | 7.0 | 0.00 | 0.00 | 0.00 | 70 | 1015.1 |
| 20260510104539 | 60 | 149 | 2.6 | 7.0 | 0.00 | 0.00 | 0.00 | 70 | 1015.3 |
| 20260510104040 | 59 | 291 | 2.6 | 7.0 | 0.00 | 0.00 | 0.00 | 69 | 1015.3 |
| 20260510103535 | 59 | 204 | 1.7 | 7.0 | 0.00 | 0.00 | 0.00 | 71 | 1015.4 |
| 20260510103035 | 59 | 126 | 2.6 | 6.1 | 0.00 | 0.00 | 0.00 | 72 | 1015.3 |
| 20260510102534 | 59 | 153 | 3.5 | 6.1 | 0.00 | 0.00 | 0.00 | 70 | 1015.5 |
| 20260510102035 | 59 | 188 | 0.0 | 6.1 | 0.00 | 0.00 | 0.00 | 71 | 1015.5 |
| 20260510101534 | 59 | 157 | 2.6 | 6.1 | 0.00 | 0.00 | 0.00 | 71 | 1015.6 |
| 20260510101033 | 59 | 250 | 0.9 | 7.0 | 0.00 | 0.00 | 0.00 | 73 | 1015.6 |
| 20260510100533 | 59 | 225 | 3.5 | 6.1 | 0.00 | 0.00 | 0.00 | 69 | 1015.7 |
| 20260510100030 | 59 | 197 | 2.6 | 7.0 | 0.00 | 0.00 | 0.00 | 76 | 1015.7 |
| 20260510095529 | 58 | 144 | 2.6 | 7.0 | 0.00 | 0.00 | 0.00 | 71 | 1015.8 |
| 20260510095029 | 58 | 139 | 3.5 | 7.0 | 0.00 | 0.00 | 0.00 | 71 | 1015.7 |
| 20260510094543 | 58 | 211 | 2.6 | 7.0 | 0.00 | 0.00 | 0.00 | 72 | 1015.8 |
| 20260510094026 | 58 | 221 | 2.6 | 6.1 | 0.00 | 0.00 | 0.00 | 70 | 1015.8 |
| 20260510093527 | 57 | 296 | 1.7 | 7.8 | 0.00 | 0.00 | 0.00 | 71 | 1015.8 |
| 20260510093029 | 58 | 148 | 3.5 | 7.8 | 0.00 | 0.00 | 0.00 | 71 | 1016.0 |
| 20260510092526 | 58 | 211 | 1.7 | 3.5 | 0.00 | 0.00 | 0.00 | 72 | 1016.1 |
| 20260510092021 | 57 | 211 | 1.7 | 4.3 | 0.00 | 0.00 | 0.00 | 75 | 1016.0 |
| 20260510091525 | 57 | 203 | 0.0 | 4.3 | 0.00 | 0.00 | 0.00 | 75 | 1016.2 |
| 20260510091019 | 56 | 166 | 0.9 | 4.3 | 0.00 | 0.00 | 0.00 | 74 | 1016.2 |
| 20260510090518 | 56 | 156 | 0.9 | 7.8 | 0.00 | 0.00 | 0.00 | 75 | 1016.2 |
| 20260510090019 | 56 | 208 | 2.6 | 7.0 | 0.00 | 0.00 | 0.00 | 75 | 1016.2 |
| 20260510085516 | 55 | 194 | 2.6 | 7.0 | 0.00 | 0.00 | 0.00 | 75 | 1016.4 |
| 20260510085016 | 55 | 174 | 3.5 | 7.0 | 0.00 | 0.00 | 0.00 | 74 | 1016.4 |
| 20260510084514 | 55 | 196 | 2.6 | 7.0 | 0.00 | 0.00 | 0.00 | 74 | 1016.4 |
| 20260510084013 | 55 | 198 | 2.6 | 7.0 | 0.00 | 0.00 | 0.00 | 76 | 1016.5 |
| 20260510083512 | 55 | 110 | 3.5 | 7.0 | 0.00 | 0.00 | 0.00 | 74 | 1016.6 |
| 20260510083010 | 54 | 146 | 2.6 | 5.2 | 0.00 | 0.00 | 0.00 | 73 | 1016.5 |
| 20260510082509 | 54 | 101 | 1.7 | 5.2 | 0.00 | 0.00 | 0.00 | 75 | 1016.6 |
| 20260510082007 | 53 | 154 | 0.9 | 8.7 | 0.00 | 0.00 | 0.00 | 76 | 1016.6 |
| 20260510081509 | 53 | 167 | 4.3 | 8.7 | 0.00 | 0.00 | 0.00 | 73 | 1016.7 |
| 20260510081005 | 53 | 233 | 1.7 | 9.6 | 0.00 | 0.00 | 0.00 | 76 | 1016.7 |
| 20260510080504 | 53 | 175 | 2.6 | 9.6 | 0.00 | 0.00 | 0.00 | 74 | 1016.8 |
| 20260510080002 | 52 | 195 | 2.6 | 7.8 | 0.00 | 0.00 | 0.00 | 75 | 1016.9 |
| 20260510075502 | 52 | 219 | 3.5 | 7.8 | 0.00 | 0.00 | 0.00 | 76 | 1016.7 |
| 20260510075101 | 52 | 188 | 4.3 | 7.8 | 0.00 | 0.00 | 0.00 | 75 | 1016.8 |
| 20260510074600 | 52 | 134 | 2.6 | 7.0 | 0.00 | 0.00 | 0.00 | 75 | 1016.9 |
| 20260510074057 | 52 | 198 | 2.6 | 7.0 | 0.00 | 0.00 | 0.00 | 76 | 1016.9 |
| 20260510073556 | 52 | 186 | 1.7 | 7.0 | 0.00 | 0.00 | 0.00 | 77 | 1016.9 |
| 20260510073054 | 52 | 140 | 2.6 | 7.8 | 0.00 | 0.00 | 0.00 | 76 | 1016.9 |
| 20260510072553 | 51 | 172 | 3.5 | 7.8 | 0.00 | 0.00 | 0.00 | 78 | 1017.0 |
| 20260510072052 | 51 | 159 | 2.6 | 7.0 | 0.00 | 0.00 | 0.00 | 78 | 1017.2 |
| 20260510071554 | 51 | 229 | 2.6 | 5.2 | 0.00 | 0.00 | 0.00 | 78 | 1017.2 |
| 20260510071049 | 51 | 176 | 1.7 | 9.6 | 0.00 | 0.00 | 0.00 | 79 | 1017.1 |
| 20260510070552 | 51 | 188 | 2.6 | 9.6 | 0.00 | 0.00 | 0.00 | 78 | 1017.2 |
| 20260510070046 | 51 | 161 | 0.9 | 7.8 | 0.00 | 0.00 | 0.00 | 78 | 1017.2 |
| 20260510065545 | 50 | 175 | 0.9 | 7.0 | 0.00 | 0.00 | 0.00 | 79 | 1017.3 |
| 20260510065043 | 50 | 202 | 0.9 | 11.3 | 0.00 | 0.00 | 0.00 | 79 | 1017.3 |
| 20260510064541 | 50 | 178 | 0.0 | 11.3 | 0.00 | 0.00 | 0.00 | 80 | 1017.4 |
| 20260510064040 | 50 | 143 | 1.7 | 7.0 | 0.00 | 0.00 | 0.00 | 80 | 1017.6 |
| 20260510063540 | 50 | 163 | 0.9 | 5.2 | 0.00 | 0.00 | 0.00 | 81 | 1017.5 |
| 20260510063037 | 49 | 43 | 2.6 | 5.2 | 0.00 | 0.00 | 0.00 | 80 | 1017.7 |
| 20260510062538 | 49 | 141 | 1.7 | 7.0 | 0.00 | 0.00 | 0.00 | 80 | 1017.5 |
| 20260510062034 | 49 | 84 | 3.5 | 7.0 | 0.00 | 0.00 | 0.00 | 80 | 1017.6 |
| 20260510061533 | 49 | 123 | 1.7 | 6.1 | 0.00 | 0.00 | 0.00 | 80 | 1017.5 |
| 20260510061032 | 49 | 219 | 1.7 | 6.1 | 0.00 | 0.00 | 0.00 | 80 | 1017.6 |
| 20260510060530 | 49 | 97 | 0.0 | 8.7 | 0.00 | 0.00 | 0.00 | 82 | 1017.7 |
| 20260510060029 | 48 | 207 | 0.9 | 8.7 | 0.00 | 0.00 | 0.00 | 80 | 1017.8 |
| 20260510055528 | 48 | 173 | 0.0 | 5.2 | 0.00 | 0.00 | 0.00 | 82 | 1017.8 |
| 20260510055028 | 48 | 225 | 0.9 | 7.0 | 0.00 | 0.00 | 0.00 | 81 | 1017.8 |
| 20260510054526 | 48 | 87 | 0.0 | 7.0 | 0.00 | 0.00 | 0.00 | 82 | 1017.8 |
| 20260510054025 | 48 | 166 | 2.6 | 7.0 | 0.00 | 0.00 | 0.00 | 82 | 1017.7 |
| 20260510053525 | 48 | 175 | 0.9 | 3.5 | 0.00 | 0.00 | 0.00 | 82 | 1017.8 |
| 20260510053045 | 47 | 227 | 0.0 | 4.3 | 0.00 | 0.00 | 0.00 | 83 | 1017.8 |
| 20260510052525 | 47 | 83 | 0.9 | 4.3 | 0.00 | 0.00 | 0.00 | 83 | 1017.8 |
| 20260510052024 | 47 | 62 | 0.0 | 3.5 | 0.00 | 0.00 | 0.00 | 84 | 1017.8 |
| 20260510051526 | 47 | 59 | 0.9 | 4.3 | 0.00 | 0.00 | 0.00 | 84 | 1017.8 |
| 20260510051023 | 47 | 79 | 0.9 | 4.3 | 0.00 | 0.00 | 0.00 | 84 | 1017.8 |
| 20260510050523 | 47 | 167 | 0.9 | 3.5 | 0.00 | 0.00 | 0.00 | 84 | 1017.9 |
| 20260510050028 | 46 | 80 | 0.9 | 4.3 | 0.00 | 0.00 | 0.00 | 84 | 1017.9 |
| 20260510045522 | 46 | 77 | 1.7 | 4.3 | 0.00 | 0.00 | 0.00 | 84 | 1017.9 |
| 20260510045022 | 46 | 65 | 0.9 | 7.0 | 0.00 | 0.00 | 0.00 | 85 | 1017.9 |
| 20260510044522 | 46 | 83 | 0.9 | 7.0 | 0.00 | 0.00 | 0.00 | 85 | 1018.0 |
| 20260510044021 | 45 | 80 | 1.7 | 5.2 | 0.00 | 0.00 | 0.00 | 85 | 1017.9 |
| 20260510043520 | 45 | 69 | 1.7 | 5.2 | 0.00 | 0.00 | 0.00 | 85 | 1017.8 |
| 20260510043036 | 45 | 82 | 0.9 | 3.5 | 0.00 | 0.00 | 0.00 | 86 | 1017.8 |
| 20260510042518 | 45 | 5 | 1.7 | 3.5 | 0.00 | 0.00 | 0.00 | 85 | 1017.8 |
| 20260510042018 | 45 | 71 | 0.9 | 3.5 | 0.00 | 0.00 | 0.00 | 85 | 1017.9 |
| 20260510041525 | 45 | 76 | 1.7 | 3.5 | 0.00 | 0.00 | 0.00 | 85 | 1018.0 |
| 20260510041018 | 45 | 55 | 0.9 | 3.5 | 0.00 | 0.00 | 0.00 | 85 | 1017.9 |
| 20260510040518 | 45 | 136 | 1.7 | 3.5 | 0.00 | 0.00 | 0.00 | 86 | 1018.1 |
| 20260510040032 | 45 | 69 | 0.9 | 2.6 | 0.00 | 0.00 | 0.00 | 86 | 1018.0 |
| 20260510035516 | 45 | 73 | 0.9 | 3.5 | 0.00 | 0.00 | 0.00 | 85 | 1018.0 |
| 20260510035016 | 45 | 71 | 0.9 | 3.5 | 0.00 | 0.00 | 0.00 | 85 | 1017.9 |
| 20260510034614 | 45 | 63 | 0.9 | 2.6 | 0.00 | 0.00 | 0.00 | 85 | 1018.0 |
| 20260510034015 | 45 | 39 | 0.9 | 5.2 | 0.00 | 0.00 | 0.00 | 85 | 1017.9 |
| 20260510033512 | 45 | 53 | 0.9 | 3.5 | 0.00 | 0.00 | 0.00 | 85 | 1017.9 |
| 20260510033012 | 45 | 24 | 1.7 | 3.5 | 0.00 | 0.00 | 0.00 | 84 | 1017.9 |
| 20260510032514 | 46 | 57 | 0.9 | 2.6 | 0.00 | 0.00 | 0.00 | 85 | 1017.8 |
| 20260510032011 | 46 | 138 | 0.0 | 5.2 | 0.00 | 0.00 | 0.00 | 84 | 1017.8 |
| 20260510031511 | 46 | 95 | 1.7 | 5.2 | 0.00 | 0.00 | 0.00 | 84 | 1017.9 |
| 20260510031010 | 46 | 34 | 0.9 | 5.2 | 0.00 | 0.00 | 0.00 | 84 | 1017.7 |
| 20260510030509 | 46 | 11 | 1.7 | 4.3 | 0.00 | 0.00 | 0.00 | 84 | 1017.9 |
| 20260510030009 | 46 | 38 | 0.9 | 2.6 | 0.00 | 0.00 | 0.00 | 84 | 1017.9 |
| 20260510025508 | 46 | 32 | 0.9 | 3.5 | 0.00 | 0.00 | 0.00 | 84 | 1017.9 |
| 20260510025008 | 46 | 68 | 0.9 | 3.5 | 0.00 | 0.00 | 0.00 | 83 | 1018.1 |
| 20260510024507 | 46 | 76 | 0.9 | 3.5 | 0.00 | 0.00 | 0.00 | 83 | 1018.0 |
| 20260510024010 | 46 | 69 | 0.9 | 3.5 | 0.00 | 0.00 | 0.00 | 83 | 1018.1 |
| 20260510023506 | 46 | 66 | 0.9 | 3.5 | 0.00 | 0.00 | 0.00 | 84 | 1018.2 |
| 20260510023007 | 46 | 5 | 0.9 | 5.2 | 0.00 | 0.00 | 0.00 | 84 | 1018.3 |
| 20260510022505 | 46 | 93 | 1.7 | 3.5 | 0.00 | 0.00 | 0.00 | 83 | 1018.3 |
| 20260510022004 | 46 | 75 | 0.0 | 6.1 | 0.00 | 0.00 | 0.00 | 83 | 1018.2 |
| 20260510021514 | 46 | 89 | 1.7 | 6.1 | 0.00 | 0.00 | 0.00 | 83 | 1018.5 |
| 20260510021004 | 46 | 101 | 1.7 | 3.5 | 0.00 | 0.00 | 0.00 | 82 | 1018.6 |
| 20260510020502 | 46 | 59 | 0.9 | 3.5 | 0.00 | 0.00 | 0.00 | 82 | 1018.6 |
| 20260510020002 | 46 | 40 | 0.0 | 5.2 | 0.00 | 0.00 | 0.00 | 83 | 1018.7 |
| 20260510015505 | 46 | 82 | 0.9 | 5.2 | 0.00 | 0.00 | 0.00 | 83 | 1018.8 |
| 20260510015001 | 46 | 52 | 0.0 | 2.6 | 0.00 | 0.00 | 0.00 | 84 | 1018.8 |
| 20260510014503 | 46 | 45 | 0.0 | 2.6 | 0.00 | 0.00 | 0.00 | 84 | 1018.7 |
| 20260510014002 | 46 | 80 | 0.9 | 3.5 | 0.00 | 0.00 | 0.00 | 83 | 1018.7 |
| 20260510013502 | 46 | 80 | 0.9 | 4.3 | 0.00 | 0.00 | 0.00 | 83 | 1018.8 |
| 20260510013100 | 46 | 23 | 0.9 | 4.3 | 0.00 | 0.00 | 0.00 | 83 | 1018.6 |
| 20260510012600 | 46 | 56 | 0.9 | 3.5 | 0.00 | 0.00 | 0.00 | 83 | 1018.7 |
| 20260510012101 | 46 | 48 | 1.7 | 3.5 | 0.00 | 0.00 | 0.00 | 84 | 1018.9 |
| 20260510011559 | 46 | 61 | 0.9 | 4.3 | 0.00 | 0.00 | 0.00 | 84 | 1018.8 |
| 20260510011158 | 46 | 82 | 1.7 | 4.3 | 0.00 | 0.00 | 0.00 | 85 | 1018.9 |
| 20260510010557 | 46 | 59 | 1.7 | 3.5 | 0.00 | 0.00 | 0.00 | 84 | 1019.0 |
| 20260510010056 | 46 | 26 | 0.9 | 3.5 | 0.00 | 0.00 | 0.00 | 84 | 1019.1 |
| 20260510005555 | 46 | 339 | 0.9 | 3.5 | 0.00 | 0.00 | 0.00 | 84 | 1019.3 |
| 20260510005054 | 46 | 40 | 0.9 | 3.5 | 0.00 | 0.00 | 0.00 | 83 | 1019.4 |
| 20260510004559 | 46 | 53 | 0.9 | 3.5 | 0.00 | 0.00 | 0.00 | 83 | 1019.4 |
| 20260510004054 | 47 | 97 | 1.7 | 3.5 | 0.00 | 0.00 | 0.00 | 83 | 1019.4 |
| 20260510003554 | 47 | 88 | 0.0 | 3.5 | 0.00 | 0.00 | 0.00 | 82 | 1019.4 |
| 20260510003055 | 47 | 77 | 1.7 | 3.5 | 0.00 | 0.00 | 0.00 | 82 | 1019.5 |
| 20260510002552 | 47 | 47 | 0.9 | 3.5 | 0.00 | 0.00 | 0.00 | 82 | 1019.5 |
| 20260510002052 | 47 | 59 | 0.9 | 3.5 | 0.00 | 0.00 | 0.00 | 82 | 1019.6 |
| 20260510001552 | 47 | 69 | 1.7 | 3.5 | 0.00 | 0.00 | 0.00 | 82 | 1019.7 |
| 20260510001051 | 47 | 342 | 0.9 | 4.3 | 0.00 | 0.00 | 0.00 | 82 | 1019.7 |
| 20260510000554 | 46 | 69 | 1.7 | 4.3 | 0.00 | 0.00 | 0.00 | 83 | 1019.7 |
| 20260510000058 | 46 | 61 | 0.9 | 4.3 | 0.00 | 0.00 | 0.00 | 83 | 1019.6 |
| 20260509235553 | 46 | 343 | 0.9 | 4.3 | 0.00 | 0.00 | 0.00 | 83 | 1019.7 |
| 20260509235050 | 46 | 17 | 0.9 | 3.5 | 0.00 | 0.00 | 0.00 | 83 | 1019.7 |
| 20260509234550 | 46 | 53 | 0.9 | 3.5 | 0.00 | 0.00 | 0.00 | 83 | 1019.8 |
| 20260509234049 | 46 | 17 | 0.9 | 3.5 | 0.00 | 0.00 | 0.00 | 83 | 1019.8 |
| 20260509233548 | 46 | 311 | 0.9 | 2.6 | 0.00 | 0.00 | 0.00 | 83 | 1019.8 |
| 20260509233047 | 47 | 290 | 0.9 | 3.5 | 0.00 | 0.00 | 0.00 | 83 | 1019.9 |
| 20260509232548 | 47 | 12 | 0.9 | 4.3 | 0.00 | 0.00 | 0.00 | 83 | 1020.0 |
| 20260509232046 | 47 | 22 | 0.9 | 5.2 | 0.00 | 0.00 | 0.00 | 82 | 1020.1 |
| 20260509231546 | 47 | 287 | 0.9 | 5.2 | 0.00 | 0.00 | 0.00 | 83 | 1020.0 |
| 20260509231047 | 47 | 71 | 0.9 | 5.2 | 0.00 | 0.00 | 0.00 | 82 | 1020.0 |
| 20260509230544 | 47 | 9 | 0.9 | 3.5 | 0.00 | 0.00 | 0.00 | 82 | 1020.1 |
| 20260509230044 | 47 | 343 | 0.9 | 3.5 | 0.00 | 0.00 | 0.00 | 82 | 1020.1 |
| 20260509225544 | 47 | 44 | 0.9 | 3.5 | 0.00 | 0.00 | 0.00 | 82 | 1020.2 |
| 20260509225042 | 47 | 36 | 0.9 | 3.5 | 0.00 | 0.00 | 0.00 | 82 | 1020.2 |
| 20260509224543 | 47 | 99 | 0.9 | 3.5 | 0.00 | 0.00 | 0.00 | 82 | 1020.2 |
| 20260509224042 | 47 | 9 | 0.9 | 3.5 | 0.00 | 0.00 | 0.00 | 82 | 1020.1 |
| 20260509223542 | 47 | 103 | 1.7 | 5.2 | 0.00 | 0.00 | 0.00 | 82 | 1020.1 |
| 20260509223042 | 47 | 85 | 0.9 | 3.5 | 0.00 | 0.00 | 0.00 | 82 | 1020.2 |
| 20260509222541 | 48 | 40 | 0.0 | 2.6 | 0.00 | 0.00 | 0.00 | 82 | 1020.2 |
| 20260509222040 | 48 | 24 | 1.7 | 4.3 | 0.00 | 0.00 | 0.00 | 82 | 1020.3 |
| 20260509221540 | 47 | 78 | 1.7 | 4.3 | 0.00 | 0.00 | 0.00 | 82 | 1020.3 |
| 20260509221039 | 47 | 32 | 0.9 | 3.5 | 0.00 | 0.00 | 0.00 | 83 | 1020.4 |
| 20260509220538 | 47 | 52 | 0.0 | 2.6 | 0.00 | 0.00 | 0.00 | 83 | 1020.5 |
| 20260509220039 | 47 | 41 | 0.0 | 2.6 | 0.00 | 0.00 | 0.00 | 83 | 1020.5 |
| 20260509215537 | 47 | 44 | 0.9 | 3.5 | 0.00 | 0.00 | 0.00 | 83 | 1020.5 |
| 20260509215036 | 47 | 343 | 0.9 | 3.5 | 0.00 | 0.00 | 0.00 | 83 | 1020.5 |
| 20260509214547 | 47 | 44 | 0.0 | 2.6 | 0.00 | 0.00 | 0.00 | 83 | 1020.5 |
| 20260509214036 | 47 | 33 | 0.0 | 4.3 | 0.00 | 0.00 | 0.00 | 83 | 1020.4 |
| 20260509213536 | 47 | 142 | 0.9 | 5.2 | 0.00 | 0.00 | 0.00 | 82 | 1020.4 |
| 20260509213037 | 47 | 50 | 1.7 | 5.2 | 0.00 | 0.00 | 0.00 | 83 | 1020.5 |
| 20260509212635 | 47 | 42 | 0.9 | 3.5 | 0.00 | 0.00 | 0.00 | 84 | 1020.3 |
| 20260509212035 | 47 | 303 | 0.9 | 2.6 | 0.00 | 0.00 | 0.00 | 84 | 1020.3 |
| 20260509211535 | 47 | 38 | 0.9 | 2.6 | 0.00 | 0.00 | 0.00 | 84 | 1020.3 |
| 20260509211035 | 47 | 13 | 0.0 | 3.5 | 0.00 | 0.00 | 0.00 | 84 | 1020.5 |
| 20260509210535 | 47 | 170 | 0.0 | 2.6 | 0.00 | 0.00 | 0.00 | 85 | 1020.5 |
| 20260509210039 | 47 | 324 | 0.9 | 2.6 | 0.00 | 0.00 | 0.00 | 84 | 1020.5 |
| 20260509205536 | 48 | 269 | 0.0 | 3.5 | 0.00 | 0.00 | 0.00 | 85 | 1020.5 |
| 20260509205035 | 47 | 16 | 0.9 | 3.5 | 0.00 | 0.00 | 0.00 | 85 | 1020.5 |
| 20260509204536 | 48 | 269 | 0.0 | 2.6 | 0.00 | 0.00 | 0.00 | 85 | 1020.6 |
| 20260509204034 | 48 | 267 | 0.9 | 4.3 | 0.00 | 0.00 | 0.00 | 85 | 1020.6 |
| 20260509203536 | 48 | 49 | 0.9 | 4.3 | 0.00 | 0.00 | 0.00 | 86 | 1020.6 |
| 20260509203033 | 48 | 307 | 0.0 | 2.6 | 0.00 | 0.00 | 0.00 | 86 | 1020.7 |
| 20260509202533 | 48 | 307 | 0.9 | 2.6 | 0.00 | 0.00 | 0.00 | 85 | 1020.5 |
| 20260509202034 | 48 | 307 | 0.9 | 3.5 | 0.00 | 0.00 | 0.00 | 85 | 1020.5 |
| 20260509201533 | 48 | 208 | 0.9 | 3.5 | 0.00 | 0.00 | 0.00 | 85 | 1020.5 |
| 20260509201033 | 48 | 304 | 0.0 | 1.7 | 0.00 | 0.00 | 0.00 | 85 | 1020.6 |
| 20260509200533 | 48 | 304 | 0.0 | 2.6 | 0.00 | 0.00 | 0.00 | 84 | 1020.5 |
| 20260509200035 | 48 | 304 | 0.9 | 2.6 | 0.00 | 0.00 | 0.00 | 84 | 1020.5 |
| 20260509195533 | 48 | 342 | 0.9 | 1.7 | 0.00 | 0.00 | 0.00 | 83 | 1020.5 |
| 20260509195032 | 48 | 355 | 0.0 | 2.6 | 0.00 | 0.00 | 0.00 | 83 | 1020.5 |
| 20260509194534 | 48 | 333 | 0.9 | 5.2 | 0.00 | 0.00 | 0.00 | 83 | 1020.5 |
| 20260509194032 | 48 | 342 | 0.9 | 5.2 | 0.00 | 0.00 | 0.00 | 83 | 1020.5 |
| 20260509193532 | 48 | 29 | 0.9 | 5.2 | 0.00 | 0.00 | 0.00 | 82 | 1020.4 |
| 20260509193033 | 48 | 5 | 0.9 | 3.5 | 0.00 | 0.00 | 0.00 | 83 | 1020.4 |
| 20260509192531 | 49 | 66 | 0.9 | 2.6 | 0.00 | 0.00 | 0.00 | 83 | 1020.5 |
| 20260509192031 | 49 | 67 | 0.9 | 2.6 | 0.00 | 0.00 | 0.00 | 83 | 1020.5 |
| 20260509191545 | 49 | 58 | 0.9 | 3.5 | 0.00 | 0.00 | 0.00 | 83 | 1020.4 |
| 20260509191030 | 49 | 61 | 0.9 | 3.5 | 0.00 | 0.00 | 0.00 | 83 | 1020.5 |
| 20260509190533 | 49 | 12 | 0.9 | 2.6 | 0.00 | 0.00 | 0.00 | 83 | 1020.4 |
| 20260509190032 | 49 | 94 | 0.0 | 3.5 | 0.00 | 0.00 | 0.00 | 82 | 1020.3 |
| 20260509185530 | 49 | 94 | 0.0 | 3.5 | 0.00 | 0.00 | 0.00 | 82 | 1020.4 |
| 20260509185030 | 49 | 87 | 0.9 | 3.5 | 0.00 | 0.00 | 0.00 | 81 | 1020.4 |
| 20260509184543 | 49 | 67 | 0.9 | 3.5 | 0.00 | 0.00 | 0.00 | 81 | 1020.4 |
| 20260509184030 | 49 | 33 | 0.0 | 3.5 | 0.00 | 0.00 | 0.00 | 81 | 1020.3 |
| 20260509183530 | 49 | 331 | 0.0 | 2.6 | 0.00 | 0.00 | 0.00 | 81 | 1020.3 |